Theta_e
316 316 316 316 316 316 316 316 317 317 317 318 319 319 320 320 320 313 301 308 312 325 330 308 313 309 306 304 305 302 294 291 295 298 300 304 302 307 325 323 326 340 337 340 343
315 315 315 316 316 316 315 316 316 317 317 318 319 319 320 320 310 303 314 326 328 332 310 306 301 306 300 300 302 299 293 295 300 303 302 304 304 304 318 321 325 333 340 342 343
314 315 315 315 315 316 315 315 316 317 318 318 319 319 319 318 300 299 327 328 330 330 310 308 304 302 297 295 298 297 295 300 303 309 307 305 304 306 308 315 327 327 336 340 339
314 314 314 314 314 314 314 315 316 317 317 317 318 318 319 310 288 300 339 342 331 323 313 307 301 295 292 293 296 293 299 301 303 305 305 304 306 304 306 315 326 335 339 340 338
313 313 313 314 314 314 314 315 315 316 316 317 317 318 310 297 298 307 329 339 323 316 308 304 299 297 294 294 294 293 298 301 304 304 302 305 303 305 304 310 327 339 340 339 339
314 313 313 313 314 314 315 315 315 315 315 317 317 318 303 291 303 309 310 320 318 309 306 303 301 300 296 295 295 297 297 299 302 303 302 304 306 304 305 310 317 337 338 339 339
313 313 313 313 313 314 314 315 314 314 315 318 318 314 303 296 304 306 314 311 312 309 305 304 303 299 297 295 297 297 294 297 298 301 300 304 302 301 306 324 330 334 336 339 340
312 312 312 313 313 314 314 314 314 315 317 319 320 312 295 305 307 307 305 305 309 308 307 305 303 298 295 296 296 292 290 289 294 299 302 302 296 312 308 321 325 332 334 335 335
312 311 312 312 313 314 314 313 316 317 320 320 309 302 295 311 308 311 307 306 307 308 305 310 300 296 295 291 288 288 286 287 293 298 300 300 295 304 310 311 317 325 328 329 320
312 311 311 312 313 313 313 313 322 319 318 318 313 299 299 303 310 311 307 308 306 304 302 299 294 291 288 287 283 285 285 287 290 294 296 297 295 301 306 313 316 318 318 320 323
312 311 311 311 312 312 308 301 296 296 302 299 300 300 303 309 314 309 308 306 305 299 293 294 289 286 290 291 292 291 289 289 291 295 294 295 295 299 302 310 310 315 316 314 322
311 311 311 311 311 312 304 297 297 298 292 301 302 303 306 307 302 305 310 298 297 293 293 291 287 292 294 294 292 290 288 287 291 294 293 293 294 298 301 303 312 313 314 312 314
310 310 310 311 310 304 300 299 299 298 293 299 302 301 302 305 301 302 306 299 295 292 291 289 292 297 295 293 291 289 287 288 289 293 293 292 290 294 300 302 305 308 313 312 313
309 310 310 310 303 299 298 303 301 300 289 296 302 303 303 302 299 306 306 301 294 293 292 290 294 294 293 292 292 287 293 294 292 288 285 291 283 289 294 299 301 307 305 308 310
309 310 310 310 298 298 302 301 300 303 279 300 300 306 303 299 300 303 305 299 295 295 293 291 293 293 292 293 295 292 296 293 293 288 285 286 283 287 291 294 298 304 308 309 309
308 309 309 304 298 302 301 300 301 290 282 296 299 297 295 298 298 302 301 302 300 294 293 294 297 296 296 298 298 298 294 291 288 286 281 289 286 284 288 293 295 300 306 307 309
308 308 306 307 297 302 300 298 288 284 294 291 292 296 293 292 294 296 294 291 288 287 287 292 292 296 299 294 296 294 288 282 280 280 282 287 284 286 293 295 297 298 301 304 308
306 305 304 308 304 299 297 292 282 288 289 294 293 295 289 291 291 292 291 288 291 290 287 286 287 294 298 295 291 290 289 283 279 278 283 288 285 290 296 299 299 299 300 302 303
304 299 301 301 302 298 293 283 281 287 291 290 291 288 287 290 291 292 287 287 290 292 285 284 287 296 301 298 296 292 286 290 286 284 281 285 290 294 296 298 300 300 301 300 301
294 296 297 302 299 298 289 286 286 291 292 291 285 288 283 285 287 289 288 289 288 293 293 287 282 294 297 299 296 293 296 286 285 279 277 282 285 286 293 296 300 301 299 301 300
294 293 299 301 297 290 282 284 289 293 294 289 286 285 285 284 284 285 285 287 290 291 293 287 285 287 292 290 287 291 284 287 288 284 279 278 282 296 294 296 297 301 302 299 299
290 288 299 297 287 284 282 287 294 290 292 291 288 287 285 284 283 284 284 286 291 292 287 287 283 279 285 290 294 290 285 285 280 282 285 282 282 299 297 298 300 303 305 306 305
289 289 297 293 281 280 285 289 290 289 288 287 286 287 286 282 279 285 286 290 290 292 285 285 279 275 278 285 287 284 285 286 284 285 284 281 284 300 300 299 300 301 304 306 306
288 284 287 287 286 283 283 285 286 291 289 289 286 287 283 281 282 280 282 288 290 289 292 288 281 279 275 281 283 281 282 284 284 280 281 284 286 291 297 297 299 301 300 304 306
287 284 285 280 283 283 283 285 285 285 288 287 284 285 282 277 278 278 282 284 286 289 285 282 277 281 281 283 283 282 281 282 280 281 279 284 284 290 295 297 297 300 302 302 303
285 284 285 283 285 284 284 282 285 287 285 284 282 286 283 278 280 279 280 279 280 282 279 281 274 279 278 282 281 279 281 281 281 282 283 285 286 293 295 298 296 298 302 302 303
289 289 286 285 283 281 281 284 286 287 288 289 287 284 282 284 286 286 284 283 283 280 278 277 276 273 273 279 278 273 279 280 281 284 285 281 287 290 290 292 295 299 298 301 306
Wind_Speed
22 21 22 22 20 20 20 19 18 16 15 14 13 13 12 11 10 3 9 13 11 15 6 3 1 2 0 3 3 5 3 4 6 9 5 6 3 3 5 5 9 13 5 8 12
21 22 22 22 22 21 20 19 18 16 15 13 12 11 10 9 3 9 14 17 20 8 4 5 2 6 2 3 3 5 5 10 7 5 0 1 2 4 3 7 6 5 1 21 22
24 23 22 22 22 20 21 20 18 16 15 12 10 8 8 5 5 10 3 21 20 14 5 4 2 5 5 2 4 5 7 4 3 4 4 7 4 4 4 7 10 19 15 23 20
25 25 25 24 23 22 20 19 19 17 14 12 8 6 5 2 6 3 3 3 19 10 7 5 3 2 4 6 5 3 7 3 1 3 6 9 4 5 6 7 10 11 21 20 22
26 26 26 25 24 23 21 20 18 17 14 11 6 4 1 1 13 8 12 8 15 10 10 7 6 6 4 4 2 5 8 7 8 9 9 14 9 7 8 10 9 17 22 25 20
25 25 25 26 25 23 21 19 17 16 12 9 5 4 2 5 6 5 3 8 11 9 8 8 9 9 4 6 7 5 5 6 7 11 6 12 19 11 9 8 8 22 26 24 24
26 26 25 25 25 23 22 20 17 15 11 6 8 4 2 18 3 6 4 4 8 7 8 6 5 5 3 5 5 5 5 9 7 6 7 5 14 10 8 8 11 19 21 21 21
27 27 26 25 24 24 23 21 18 13 7 6 9 2 9 6 4 7 4 2 6 4 2 4 6 3 2 4 7 4 1 4 4 2 7 10 9 30 9 12 11 18 19 20 17
28 28 28 27 26 24 22 22 13 5 7 11 3 2 12 8 3 8 8 7 5 5 4 2 6 6 1 4 6 7 5 5 9 5 5 7 7 16 10 9 12 13 13 13 8
30 30 30 28 27 24 23 10 7 10 7 5 5 3 5 3 4 2 2 4 5 5 5 5 2 3 4 5 6 6 3 5 6 2 0 7 8 10 6 12 10 12 9 9 12
30 31 31 29 27 23 10 2 7 5 2 8 12 8 14 6 4 4 2 5 1 2 5 5 4 6 11 8 7 4 3 8 5 6 5 9 6 10 6 23 15 8 10 8 13
31 31 32 29 27 21 2 5 5 8 12 13 21 18 22 5 8 17 5 5 6 7 2 2 5 10 10 6 6 6 6 7 8 4 6 10 12 10 6 11 24 26 14 13 9
33 32 32 28 28 3 3 3 3 1 3 9 5 4 7 11 8 14 7 4 6 6 6 8 7 4 7 5 5 5 5 6 11 8 5 9 8 6 7 7 11 14 14 15 20
32 32 31 31 5 5 4 9 8 2 5 9 6 5 1 5 5 4 9 8 3 11 9 7 7 8 8 7 8 7 9 13 11 3 8 8 7 5 7 10 11 19 12 11 14
33 31 26 10 2 3 7 9 9 5 4 8 6 4 7 4 7 13 3 4 10 10 7 11 7 7 10 8 8 10 9 11 10 7 2 4 3 10 1 7 10 11 16 18 20
35 31 22 1 1 7 8 10 4 6 6 8 6 10 8 9 14 7 8 11 3 3 3 8 4 7 12 11 8 6 4 3 5 3 3 17 9 5 5 8 4 8 18 16 17
36 30 10 3 4 8 7 5 6 3 7 8 8 9 8 9 13 13 13 15 10 9 7 8 5 6 1 6 3 5 5 5 5 1 11 5 5 9 9 10 11 10 12 11 16
36 21 4 4 6 6 4 7 3 5 5 5 6 5 7 10 6 14 6 8 12 8 4 4 8 8 11 5 7 7 9 8 7 5 7 3 7 10 12 10 8 6 9 7 10
24 5 5 10 11 2 7 7 1 4 5 6 3 5 6 6 5 4 8 9 8 9 5 7 6 9 3 7 6 6 3 6 5 1 3 5 10 2 0 5 11 8 8 10 12
4 4 5 17 7 5 7 4 2 4 4 4 3 5 5 6 6 6 4 10 7 8 4 1 6 5 8 5 7 3 5 4 3 5 6 5 5 2 8 11 11 15 13 15 9
5 6 5 20 5 8 5 2 1 5 3 5 3 3 3 3 3 5 7 6 8 7 6 4 2 7 6 6 4 6 7 6 3 3 5 4 4 5 5 7 9 12 11 10 10
4 5 6 9 8 3 2 5 4 4 6 4 3 3 2 5 3 3 2 3 6 5 2 4 1 4 3 7 9 12 4 5 3 7 4 2 2 5 2 6 10 13 13 13 12
3 4 6 6 6 5 7 5 5 3 4 2 2 3 4 2 2 3 3 4 7 6 4 6 3 5 7 4 7 7 13 12 6 3 5 1 5 1 8 10 9 11 12 12 13
4 6 6 6 2 3 5 5 5 2 3 2 2 4 2 1 2 3 4 1 2 1 6 3 1 4 5 2 3 7 11 9 3 5 8 8 8 16 10 10 10 11 10 12 10
5 1 1 6 4 3 2 4 6 5 1 3 2 3 3 1 2 3 2 3 4 2 3 5 4 4 6 8 9 12 14 10 11 9 7 10 18 10 12 11 8 5 8 10 13
3 4 4 3 4 5 4 4 5 5 4 2 2 3 1 2 5 6 3 4 6 2 2 1 3 4 7 9 8 13 15 14 13 15 18 15 15 7 8 9 15 9 5 7 7
2 2 3 4 4 3 2 3 4 6 6 5 6 2 3 2 3 7 7 6 7 6 5 6 4 3 6 3 3 9 14 16 14 14 9 12 7 5 9 11 11 10 9 4 3
Wind_Direction
347 345 341 337 336 333 330 327 323 320 316 312 308 305 304 304 300 158 237 215 194 234 286 40 151 189 145 253 221 145 76 216 234 138 220 160 223 251 260 156 198 178 148 146 187
345 343 341 337 335 332 329 326 321 318 314 312 309 307 304 306 283 246 232 207 205 154 130 141 227 139 224 234 222 145 169 213 213 119 105 198 246 270 179 196 192 207 204 159 170
344 342 340 337 334 331 328 326 320 318 314 310 305 304 301 308 306 248 228 215 210 180 171 138 102 155 191 206 218 196 208 211 210 240 214 182 255 244 264 211 179 211 151 161 175
342 341 339 336 333 329 327 323 318 315 313 310 300 292 298 265 279 251 138 243 192 150 124 151 143 207 184 201 241 247 242 233 316 301 287 279 126 261 253 219 222 176 160 174 180
339 338 337 334 332 327 323 318 314 312 311 304 278 261 238 260 252 292 319 83 143 141 167 167 158 156 191 210 208 206 272 276 274 266 252 282 213 200 249 262 182 167 160 180 192
335 334 334 333 329 326 320 315 311 306 306 293 230 182 164 266 240 283 298 117 139 156 172 153 189 191 206 223 162 221 231 255 264 258 247 265 281 145 241 249 188 162 174 181 187
335 334 333 331 328 325 319 312 310 304 295 264 190 194 237 241 259 314 128 173 161 181 147 189 167 141 159 293 237 248 296 304 246 256 236 214 286 215 198 175 163 179 180 184 186
335 333 332 330 327 324 320 314 309 299 265 182 174 200 246 253 301 296 215 289 163 183 246 142 112 183 182 304 358 343 82 273 313 239 247 158 253 231 189 152 182 189 190 185 183
335 333 333 330 327 324 324 320 316 105 131 146 144 145 266 303 258 245 171 211 145 188 162 166 124 187 63 100 354 7 246 276 309 219 252 186 242 260 165 171 202 193 191 196 165
336 334 331 331 328 325 325 319 114 108 123 197 265 333 275 288 285 235 252 193 202 102 99 158 139 147 50 94 217 241 253 264 248 305 74 278 270 285 106 354 176 189 210 189 174
335 333 330 330 327 328 342 103 4 360 118 224 239 239 282 275 331 298 177 123 338 139 173 182 139 192 222 201 196 200 246 253 264 271 320 270 257 262 202 182 224 186 197 185 195
334 332 329 330 325 326 295 68 118 249 299 233 245 241 248 53 323 296 165 157 146 201 177 27 208 220 203 198 181 194 235 275 283 262 175 272 271 253 211 209 217 251 214 190 154
333 333 329 328 321 356 321 55 330 204 297 304 242 222 236 179 224 259 160 176 202 177 179 200 230 170 176 236 222 227 203 243 243 297 244 263 290 267 258 212 219 218 217 194 172
333 334 333 326 42 324 328 313 337 234 36 285 352 339 42 145 243 210 197 154 182 205 204 209 236 214 222 221 175 244 206 236 253 140 255 134 271 270 244 221 204 203 192 185 186
333 336 335 340 246 345 268 332 304 67 348 340 7 350 325 57 283 343 257 109 210 212 129 236 193 214 226 219 176 232 235 213 231 212 230 219 130 256 308 228 235 234 228 223 181
333 335 337 217 94 248 323 314 55 48 263 343 26 352 17 3 357 309 30 34 28 1 312 244 226 203 232 238 208 216 281 66 51 113 222 230 181 254 200 219 259 231 244 219 182
332 334 328 301 297 320 332 24 46 143 338 2 341 339 74 352 3 13 54 53 24 3 8 329 268 287 66 263 258 159 74 305 316 21 234 151 139 224 219 222 231 223 232 226 209
330 325 283 247 295 329 43 51 89 353 5 12 334 36 59 12 353 13 32 22 16 358 322 351 335 12 344 341 264 211 168 167 222 211 260 230 230 248 217 235 259 258 242 228 201
329 337 344 332 328 78 70 56 162 326 317 347 358 44 2 359 322 8 75 8 30 11 24 359 280 318 25 336 360 321 166 230 192 245 84 233 281 105 254 1 342 312 301 266 209
344 342 307 333 341 59 70 110 79 345 351 50 74 28 37 5 10 8 60 14 348 1 23 334 291 301 320 11 28 66 317 5 4 189 228 269 270 263 0 344 338 343 331 313 298
23 14 309 338 38 45 89 34 87 9 67 66 29 72 77 18 286 11 25 75 3 352 67 358 168 307 355 45 311 1 14 338 285 149 201 192 258 346 316 341 359 359 344 337 339
352 10 327 346 51 17 33 310 322 347 20 59 72 77 82 31 355 106 66 70 348 321 30 334 76 310 305 334 41 78 39 42 56 307 296 246 206 269 280 23 26 17 3 9 357
10 280 331 31 65 353 318 317 8 67 16 54 56 51 54 63 54 54 33 98 37 31 31 325 351 331 344 12 30 25 18 5 310 237 244 333 243 106 25 17 29 29 2 11 15
37 360 330 29 62 71 355 299 342 57 47 58 126 83 70 61 18 300 341 317 57 358 44 39 97 146 190 293 286 296 335 345 23 285 333 262 348 345 1 12 0 7 13 0 0
28 341 164 320 340 350 261 305 338 350 13 15 74 101 165 194 305 239 299 294 292 214 97 122 212 201 229 243 269 287 300 298 285 265 261 298 314 324 338 338 335 326 349 11 357
57 24 354 286 306 337 345 17 1 335 313 357 57 296 171 211 200 245 241 212 229 294 116 19 261 205 254 230 249 271 271 276 265 266 268 268 286 352 352 358 347 328 317 343 338
329 356 100 295 341 348 264 54 336 354 297 53 315 276 0 318 245 245 209 222 226 201 207 170 157 102 263 211 257 275 246 243 242 227 245 249 243 24 328 338 326 313 323 20 320